Location: Handeloh
(53.2500°N, 9.8330°E)
Time: 03:08:14
(UTC+01:00)

A-11 Canister half - Visible Passes

Search period start: 23 November 2019 00:00
Search period end: 03 December 2019 00:00
Orbit: 1514 x 1685 km, 47.2° (Epoch: 21 November)

Date Brightness Start Highest point End Pass type
(mag) Time Alt. Az. Time Alt. Az. Time Alt. Az.
23 Nov 9.7 17:34:38 10° SW 17:44:03 47° SSE 17:51:56 16° E visible
23 Nov 9.2 19:38:18 10° WSW 19:48:15 63° S 19:50:08 55° SE visible
23 Nov 10.2 21:42:50 10° W 21:48:19 34° WSW 21:48:19 34° WSW visible
24 Nov 9.7 17:11:51 10° SW 17:21:10 46° SSE 17:30:14 11° E visible
24 Nov 9.2 19:15:23 10° WSW 19:25:19 63° S 19:28:25 46° ESE visible
24 Nov 9.9 21:19:55 10° W 21:26:37 42° WSW 21:26:37 42° WSW visible
25 Nov 9.8 16:49:02 10° SW 16:58:17 45° SSE 17:07:42 10° E visible
25 Nov 9.3 18:52:29 10° WSW 19:02:23 63° S 19:06:44 38° ESE visible
25 Nov 9.6 20:56:58 10° W 21:04:55 49° SW 21:04:55 49° SW visible
25 Nov 11.1 23:02:07 10° W 23:03:07 13° W 23:03:07 13° W visible
26 Nov 9.3 18:29:35 10° WSW 18:39:28 62° S 18:45:02 30° ESE visible
26 Nov 9.4 20:34:02 10° W 20:43:14 54° SSW 20:43:14 54° SSW visible
26 Nov 10.9 22:39:06 10° W 22:41:26 17° W 22:41:26 17° W visible
27 Nov 9.4 18:06:41 10° WSW 18:16:33 62° S 18:23:23 23° E visible
27 Nov 9.3 20:11:07 10° W 20:20:54 56° SSW 20:21:35 55° S visible
27 Nov 10.7 22:16:06 10° W 22:19:46 22° W 22:19:46 22° W visible
28 Nov 9.4 17:43:48 10° WSW 17:53:38 61° S 18:01:45 17° E visible
28 Nov 9.3 19:48:11 10° W 19:58:00 57° SSW 19:59:57 51° SSE visible
28 Nov 10.5 21:53:07 10° W 21:58:09 26° WSW 21:58:09 26° WSW visible
29 Nov 9.5 17:20:56 10° WSW 17:30:43 61° S 17:40:08 12° E visible
29 Nov 9.4 19:25:16 10° W 19:35:05 58° SSW 19:38:20 43° SE visible
29 Nov 10.3 21:30:08 10° W 21:36:33 31° WSW 21:36:33 31° WSW visible
30 Nov 9.6 16:58:03 10° WSW 17:07:48 60° SSE 17:17:43 10° E visible
30 Nov 9.4 19:02:20 10° W 19:12:10 59° SSW 19:16:47 35° SE visible
30 Nov 10.1 21:07:10 10° W 21:14:59 35° SW 21:14:59 35° SW visible
01 Dec 9.6 16:35:12 10° WSW 16:44:53 59° SSE 16:54:48 10° E visible
01 Dec 9.5 18:39:26 10° W 18:49:15 60° SSW 18:55:17 27° SE visible
01 Dec 9.9 20:44:12 10° W 20:53:07 37° SW 20:53:29 37° SSW visible
02 Dec 9.5 18:16:31 10° W 18:26:20 60° S 18:33:50 20° ESE visible
02 Dec 9.9 20:21:15 10° W 20:30:15 38° SW 20:32:03 36° SSW visible
02 Dec 11.1 22:28:21 10° W 22:30:17 13° WSW 22:30:17 13° WSW visible
